New River MCAS, NC

11:01 AM EDT on October 19, 2017 (GMT -0400)
New River Marine Corps Air Station

Weather History for KNCA - June, 2013

Change the Weather History Date:

Monday, June 24, 2013

  Actual Average Record
Temperature  
Mean Temperature 78 °F -  
Max Temperature 84 °F 85 °F 98 °F (2010)
Min Temperature 71 °F 68 °F 61 °F (2003)
Cooling Degree Days 12    
Growing Degree Days 28 (Base 50)    
Moisture  
Dew Point 73 °F    
Average Humidity 91    
Maximum Humidity 100    
Minimum Humidity 72    
Precipitation  
Precipitation 0.50 in - - ()
Sea Level Pressure  
Sea Level Pressure 30.21 in    
Wind  
Wind Speed 4 mph (SSW)    
Max Wind Speed 14 mph    
Max Gust Speed 21 mph    
Visibility 7 miles    
Events Rain , Thunderstorm    
Averages and records for this station are not official NWS values.
T = Trace of Precipitation, MM = Missing Value Source: NWS Daily Summary

Daily Weather History Graph

Daily Weather History Graph

Search for Another Location

Airport or City:

Trip Planner

Search our weather history database for the weather conditions in past years. The results will help you decide how hot, cold, wet, or windy it might be!

Date:

Astronomy

Jun. 24, 2013 Rise Set
Actual Time 5:57 AM EDT 8:26 PM EDT
Civil Twilight 5:28 AM EDT 8:56 PM EDT
Nautical Twilight 4:51 AM EDT 9:32 PM EDT
Astronomical Twilight 4:11 AM EDT 10:12 PM EDT
Moon 9:32 PM EDT (6/24) 7:18 AM EDT (6/24)
Length of Visible Light 15h 28m
Length of Day
14h 28m
Full, 98% of the Moon is Illuminated
Jun 24
Full
Jun 30
Last Quarter
Jul 8
New
Jul 15
First Quarter
Jul 22
Full

Hourly Weather History & Observations

Time (EDT) Temp. Heat Index Dew Point Humidity Pressure Visibility Wind Dir Wind Speed Gust Speed Precip Events Conditions
12:56 AM 73.9 °F - 73.0 °F 97% 30.20 in 10.0 mi South 4.6 mph - N/A   Clear
1:56 AM 75.0 °F - 73.0 °F 94% 30.21 in 9.0 mi Calm Calm - N/A   Clear
2:35 AM 75.2 °F - 73.4 °F 94% 30.21 in 9.0 mi Calm Calm - N/A   Mostly Cloudy
2:56 AM 73.9 °F - 73.0 °F 97% 30.22 in 8.0 mi Calm Calm - N/A   Mostly Cloudy
3:56 AM 73.9 °F - 73.0 °F 97% 30.22 in 7.0 mi Calm Calm - N/A   Overcast
4:56 AM 73.9 °F - 73.0 °F 97% 30.23 in 7.0 mi Calm Calm - N/A   Overcast
5:17 AM 73.4 °F - 73.4 °F 100% 30.22 in 7.0 mi Calm Calm - 0.00 in Rain Light Rain
5:56 AM 73.0 °F - 73.0 °F 100% 30.23 in 6.0 mi Calm Calm - 0.00 in   Overcast
7:01 AM 73.4 °F - 73.4 °F 100% 30.23 in 2.5 mi SSW 6.9 mph - 0.01 in Rain Rain
7:13 AM 73.4 °F - 71.6 °F 94% 30.23 in 1.8 mi SSW 13.8 mph 20.7 mph 0.07 in Rain , Thunderstorm Light Thunderstorms and Rain
7:25 AM 73.4 °F - 69.8 °F 88% 30.22 in 3.0 mi South 6.9 mph - 0.16 in Rain , Thunderstorm Light Thunderstorms and Rain
7:32 AM 73.4 °F - 69.8 °F 88% 30.22 in 10.0 mi South 4.6 mph - 0.16 in Rain Light Rain
7:56 AM 73.9 °F - 72.0 °F 93% 30.24 in 10.0 mi SSW 3.5 mph - 0.16 in Thunderstorm Thunderstorm
8:27 AM 77.0 °F - 73.4 °F 89% 30.23 in 6.0 mi SW 3.5 mph - 0.01 in Rain Light Rain
8:52 AM 77.0 °F - 73.4 °F 89% 30.24 in 10.0 mi SSW 3.5 mph - 0.02 in Thunderstorm Thunderstorm
8:56 AM 77.0 °F - 73.9 °F 90% 30.25 in 10.0 mi SW 3.5 mph - 0.02 in Thunderstorm Thunderstorm
9:04 AM 77.0 °F - 73.4 °F 89% 30.24 in 1.2 mi South 5.8 mph - 0.10 in Rain , Thunderstorm Heavy Thunderstorms and Rain
9:06 AM 77.0 °F - 73.4 °F 89% 30.24 in 0.8 mi Variable 5.8 mph - 0.12 in Rain , Thunderstorm Heavy Thunderstorms and Rain
9:13 AM 75.2 °F - 71.6 °F 89% 30.25 in 1.0 mi SW 11.5 mph 17.3 mph 0.17 in Rain , Thunderstorm Light Thunderstorms and Rain
9:15 AM 75.2 °F - 69.8 °F 83% 30.25 in 2.0 mi SW 9.2 mph 17.3 mph 0.17 in Rain , Thunderstorm Light Thunderstorms and Rain
9:22 AM 73.4 °F - 69.8 °F 88% 30.24 in 10.0 mi SSW 8.1 mph - 0.17 in Thunderstorm Thunderstorm
9:56 AM 71.1 °F - 69.1 °F 93% 30.26 in 10.0 mi SSW 5.8 mph - 0.17 in Rain , Thunderstorm Light Thunderstorms and Rain
10:32 AM 71.6 °F - 69.8 °F 94% 30.25 in 7.0 mi Calm Calm - 0.04 in Rain Light Rain
10:56 AM 73.0 °F - 71.1 °F 93% 30.26 in 10.0 mi South 3.5 mph - 0.04 in   Clear
11:56 AM 78.1 °F - 75.0 °F 90% 30.25 in 10.0 mi South 5.8 mph - 0.00 in   Mostly Cloudy
12:56 PM 79.0 °F - 73.0 °F 82% 30.25 in 10.0 mi SSW 5.8 mph - N/A   Clear
1:56 PM 82.0 °F 87.9 °F 73.9 °F 76% 30.22 in 10.0 mi South 9.2 mph - N/A   Clear
2:56 PM 84.0 °F 91.2 °F 73.9 °F 72% 30.19 in 10.0 mi SSW 9.2 mph - N/A   Mostly Cloudy
3:56 PM 81.0 °F 85.8 °F 73.0 °F 77% 30.19 in 10.0 mi South 11.5 mph 19.6 mph N/A   Mostly Cloudy
4:09 PM 80.6 °F 85.4 °F 73.4 °F 79% 30.18 in 10.0 mi SSW 9.2 mph - N/A Thunderstorm Thunderstorm
4:56 PM 78.1 °F - 73.0 °F 84% 30.21 in 10.0 mi WNW 11.5 mph - N/A Thunderstorm Thunderstorm
5:05 PM 75.2 °F - 71.6 °F 89% 30.19 in 2.5 mi Calm Calm - 0.03 in Rain , Thunderstorm Thunderstorms and Rain
5:09 PM 75.2 °F - 73.4 °F 94% 30.18 in 1.0 mi Calm Calm - 0.07 in Rain , Thunderstorm Heavy Thunderstorms and Rain
5:19 PM 75.2 °F - 73.4 °F 94% 30.17 in 2.0 mi West 3.5 mph - 0.10 in Rain , Thunderstorm Thunderstorms and Rain
5:29 PM 75.2 °F - 73.4 °F 94% 30.16 in 5.0 mi Calm Calm - 0.10 in Rain , Thunderstorm Light Thunderstorms and Rain
5:40 PM 75.2 °F - 73.4 °F 94% 30.15 in 5.0 mi South 4.6 mph - 0.10 in Rain Light Rain
5:56 PM 75.0 °F - 73.0 °F 94% 30.15 in 5.0 mi South 3.5 mph - 0.11 in Rain Light Rain
6:56 PM 75.0 °F - 73.0 °F 94% 30.14 in 10.0 mi SW 3.5 mph - 0.00 in   Mostly Cloudy
7:56 PM 73.9 °F - 72.0 °F 93% 30.16 in 10.0 mi WSW 4.6 mph - N/A   Mostly Cloudy
8:56 PM 73.0 °F - 71.1 °F 93% 30.16 in 10.0 mi Calm Calm - N/A   Partly Cloudy
9:56 PM 73.0 °F - 72.0 °F 96% 30.17 in 10.0 mi South 4.6 mph - N/A   Scattered Clouds
10:56 PM 73.9 °F - 73.0 °F 97% 30.17 in 10.0 mi SSW 3.5 mph - N/A   Clear
11:56 PM 73.9 °F - 73.0 °F 97% 30.18 in 9.0 mi SSW 4.6 mph - N/A   Clear